transferred

Flag for Japan Weather past 2 weeks in Sapporo, Japan

Now
65 °F

Mild.


Feels Like: 65 °F
Forecast: 51 / 73 °F
Wind: 2 mph from South

Location: Sapporo

Current Time: Sep 23, 2014 at 8:15:34 PM

Latest Report: Sep 23, 2014 at 7:00 PM


Visibility: N/A

Pressure: 30.05 "Hg

Humidity: 67%

Dew point: 53 °F

Location of SapporoLocation

Historic Weather in Sapporo — Graph

°F

Sapporo temperature yesterday

Maximum temperature yesterday: 72 °F (at 2:00 PM)
Minimum temperature yesterday: 52 °F (at 6:00 AM)
Average temperature yesterday: 62 °F

Past Weeks' High & Low Weather Summary

 TemperatureHumidityPressure
High78 °F (Sep 9, 1:00 PM)94% (Sep 20, 4:00 AM)30.09 "Hg (Sep 20, 4:00 AM)
Low51 °F (Sep 21, 6:00 AM)24% (Sep 21, 1:00 PM)29.72 "Hg (Sep 18, 2:00 PM)
Average63 °F68%29.87 "Hg
* Reported Sep 8 7:00 PM — Sep 23 7:00 PM, Sapporo, Weather by CustomWeather, © 2014

Note: Actual official high and low records may vary slightly from our data, if they occured in-between our weather recording intervals... More about our weather records

Advertising

Sapporo weather history for previous 24 hours

 ConditionsComfort  
Time TempWeatherWind HumidityBarometerVisibility
7:00 PM
Sep 23
65 °FMild.2 mph67%30.05 "HgN/A
6:00 PM68 °FOvercast.5 mph59%30.04 "Hg16 mi
5:00 PM71 °FMild.3 mph50%30.03 "HgN/A
4:00 PM73 °FMild.2 mph44%30.02 "HgN/A
3:00 PM74 °FPassing clouds.5 mph47%30.02 "Hg19 mi
2:00 PM73 °FMild.7 mph49%30.03 "HgN/A
1:00 PM74 °FMild.6 mph41%30.03 "HgN/A
12:00 PM72 °FOvercast.5 mph49%30.05 "Hg19 mi
11:00 AM72 °FMild.3 mph47%30.06 "HgN/A
10:00 AM71 °FMild.3 mph44%30.07 "HgN/A
9:00 AM66 °FOvercast.5 mph54%30.08 "Hg19 mi
8:00 AM61 °FRefreshingly cool.5 mph60%30.08 "HgN/A
7:00 AM56 °FCool.1 mph70%30.09 "HgN/A
6:00 AM53 °FPassing clouds.3 mph79%30.08 "Hg12 mi
5:00 AM54 °FCool.3 mph77%30.08 "HgN/A
4:00 AM53 °FCool.1 mph81%30.07 "HgN/A
3:00 AM55 °FClear.2 mph74%30.06 "Hg12 mi
2:00 AM55 °FCool.3 mph75%30.05 "HgN/A
1:00 AM55 °FCool.1 mph79%30.06 "HgN/A
12:00 AM56 °FCool.2 mph76%30.05 "HgN/A
11:00 PM
Sep 22
57 °FCool.2 mph73%30.05 "HgN/A
10:00 PM58 °FCool.2 mph70%30.04 "HgN/A
9:00 PM59 °FPassing clouds.3 mph69%30.03 "Hg12 mi
8:00 PM61 °FCool.2 mph61%30.02 "HgN/A
Weather by CustomWeather, © 2014

See weather overviewHow to use our weather pages